Vertical_Velocity
-1 -1 -1 -1 -0 2 4 -3 -7 -1 1 2 0 -2 -1 0 -0 1 -3 -3 -0 1 -3 -2 -2 -1 -2 -4 -1 -1 -3 -2 -3 6 -3 -3 -1 -0 -1 -2 -4 -3 -2
-1 -0 -0 -1 0 1 1 -3 -2 -5 5 3 -2 -1 -1 -1 1 -2 -3 -1 1 -3 -2 -1 -1 -3 -3 -1 -1 -2 -0 -2 -5 -1 -5 0 -4 -1 -3 -2 -2 -4 -4
-1 0 0 1 2 1 0 -1 -2 0 1 -0 -1 -1 -2 2 -3 -2 0 0 -2 -2 -1 -1 -2 -2 -2 -2 -1 -1 -2 -2 -2 -4 -1 -2 -2 -3 2 -0 -5 -4 -3
-0 -0 0 1 1 1 0 -1 -1 -1 -0 -1 -0 -0 -0 -2 -2 1 -0 -1 -1 -1 -1 -2 -2 -2 -2 -2 -2 -4 -3 -3 -3 -2 -2 -1 -4 -1 -1 -8 1 -0 -3
-1 0 1 -1 0 -1 -0 0 -1 -1 -0 1 0 -2 -3 -1 1 -1 -2 -2 -1 -1 -2 -3 -3 -2 -1 -2 -4 -3 -4 -2 -2 -3 -1 0 -2 1 -4 -4 -3 -3 -2
-0 -0 -2 -1 0 -0 -1 -1 -1 0 -0 -1 -2 -2 -1 -0 -1 -2 -2 -1 -1 -2 -2 -2 -1 -1 -4 -2 -4 -4 -2 -4 -1 -2 -3 -2 -1 -3 -1 -4 -6 -7 -4
-2 -1 -1 -1 -0 -1 -0 0 -0 -1 -1 -2 -2 -1 -1 -1 -1 -2 -1 -1 -2 -2 -1 -1 -1 -2 -1 -2 -3 -3 -7 -3 -5 -5 -2 -4 -2 -2 -1 -3 1 -1 -4
-1 -2 -1 -1 -1 -1 -2 -1 -1 -1 -2 -1 -1 -1 -1 -1 -1 -1 -1 -1 -1 -1 0 -1 -1 -2 -1 -2 -1 -2 -1 -1 -1 -4 -4 -4 -3 -2 -3 -7 -6 -1 2
-1 -0 -1 0 -1 -1 -1 -1 -1 -0 -1 -1 -1 -1 -1 -1 -1 -1 -0 -1 -1 -1 -2 -2 -3 -0 1 -1 -4 -1 -0 1 -3 -4 -4 -2 -1 -1 -4 -2 -1 -1 3
-3 1 0 -0 -0 0 -1 -0 1 -1 -0 -1 -1 -1 -0 -0 -1 -0 0 -1 -2 -1 -3 -4 2 -2 -1 -1 -2 -2 -0 -2 1 4 2 -1 -1 -0 -3 -4 -4 -2 -3
-2 -0 -1 1 1 0 -1 -1 1 0 -1 -1 -1 -1 -0 -0 0 -0 -0 0 -1 -1 -2 -1 -1 -2 -3 -2 -2 -2 -4 -3 -2 -2 -3 -2 -1 -1 -0 -0 -3 -3 -1
-1 -2 -1 -1 -1 -2 -1 0 0 0 -0 -0 -1 -1 -0 0 0 0 0 -1 -0 -0 -1 -0 -1 -2 -1 -3 -4 -2 -2 -2 -1 -3 -4 -1 0 -1 0 0 -0 -2 -0
-3 -1 -0 -1 -2 -1 -2 0 -0 -1 -0 0 -0 -1 -0 -1 -0 -1 -0 0 0 -1 0 -2 -3 -2 -2 -2 -2 -2 -2 -1 -1 -3 -2 -1 -2 -2 -2 -1 -1 -1 -1
1 -1 -2 -2 -1 -1 -0 -1 -2 -0 1 1 0 -0 -0 -0 -1 -0 1 -0 -1 -1 -0 -1 -2 -0 3 1 -1 -2 -2 -3 -3 -2 -0 -0 -0 -1 -1 -1 -1 -0 -0
2 -0 -1 -1 -1 -1 -0 4 3 2 0 -1 0 1 1 1 -0 -0 -1 -1 -1 -1 -3 -3 -2 -1 -1 -1 -1 -2 -1 -1 -0 -1 -0 0 -0 0 0 -1 -2 -1 -2
1 -3 -2 1 2 2 -0 2 3 3 1 1 1 -1 0 -0 -0 -0 -1 -1 -2 -2 -2 -2 -1 -2 -1 -1 -0 -0 -0 -1 -2 -2 -1 -0 -1 -1 1 -0 -2 -2 -1
-1 3 1 1 0 1 0 3 0 1 -0 2 2 1 -1 -1 -1 -1 -1 -1 -2 -1 -1 -1 -1 -2 -2 -1 -1 -2 -1 -3 -3 -2 -2 -1 -1 -1 -0 -0 -1 -2 -1
2 4 3 4 3 1 -1 1 1 2 2 3 1 -1 -0 -1 -2 -2 -2 -1 -0 -0 -1 -1 -2 -2 -3 -1 -1 -1 -2 -2 -2 -2 -1 -1 -1 -0 0 1 -1 -2 -2
-1 -2 -3 -1 -0 3 1 1 2 3 1 0 -2 -2 -1 -1 -1 -2 -2 -2 -1 -1 -0 -1 -1 -1 -2 -1 -1 -2 -3 -2 -2 -1 -1 -2 -2 -1 -0 1 -1 -2 -2
-3 1 1 3 0 -0 1 3 1 -0 -2 -0 1 -0 -2 -2 -1 -2 -2 -3 -2 -1 -0 -1 -1 -1 -1 -1 -1 -1 -1 -1 -1 -0 0 -1 -3 -1 -1 -0 -1 -2 -1
2 -1 -0 -1 -3 -1 0 1 2 -0 0 1 2 -1 3 0 0 0 0 -2 -2 -2 -1 -1 -1 -1 -1 -0 -1 -1 -2 -1 -2 -2 0 -0 -1 -1 -2 -1 -2 -1 -1
-1 2 3 2 -1 -3 1 -1 0 1 0 1 -1 1 2 -2 -0 -1 -1 -1 -2 -2 -2 -2 -3 -2 -1 -1 -2 -2 -1 -2 -2 -2 -2 -1 -1 -0 -2 -2 -2 -1 -1
0 1 5 3 2 -1 -3 -3 -2 -2 -2 -2 -2 1 -0 0 -1 -1 -1 -1 -1 -2 -2 -1 -1 -3 -0 -1 -1 -2 -1 -1 -1 -1 -1 -1 -2 -0 -1 -3 -2 -2 -2
7 2 2 -1 1 -1 -1 -2 -2 -1 -1 -2 -2 2 0 -0 -1 -1 -0 -1 -0 -1 -2 -1 -2 -2 -1 -1 -1 -1 -2 -2 -1 -2 -1 0 -2 -0 -1 -3 -2 -2 -2
6 6 5 3 2 -1 4 0 -2 -2 -2 -1 -0 0 1 -1 -1 -1 -0 -1 -1 0 0 -1 -3 -2 -2 -1 -1 -2 -3 -3 -2 -2 -2 -1 -1 -0 -1 -3 -2 -2 -2
5 7 2 2 -1 -5 -4 -1 5 5 -0 -2 -3 -1 0 -1 -2 -2 -1 -1 -1 -0 -0 -1 -2 -2 -1 -0 -1 -2 -2 -2 -3 -3 -2 -2 -0 -0 -0 -1 -3 -2 -2
Height
3126 3128 3130 3132 3136 3139 3141 3143 3145 3146 3146 3147 3147 3147 3148 3147 3147 3146 3146 3144 3142 3140 3137 3133 3129 3125 3120 3115 3110 3104 3098 3091 3084 3080 3070 3061 3052 3044 3036 3027 3018 3009 3001
3121 3123 3127 3130 3133 3136 3138 3140 3143 3144 3144 3145 3145 3146 3146 3146 3146 3145 3144 3143 3141 3137 3134 3130 3126 3122 3117 3112 3107 3101 3095 3086 3079 3073 3064 3055 3047 3038 3031 3022 3012 3002 2994
3117 3120 3124 3127 3130 3133 3136 3138 3140 3141 3142 3143 3144 3144 3144 3145 3145 3144 3142 3141 3138 3134 3131 3128 3123 3119 3114 3109 3103 3097 3090 3083 3075 3066 3059 3050 3041 3033 3026 3017 3006 2998 2990
3113 3117 3121 3124 3128 3131 3133 3136 3137 3139 3140 3141 3141 3142 3143 3143 3142 3142 3140 3137 3134 3131 3128 3124 3120 3116 3110 3105 3099 3092 3085 3078 3070 3062 3053 3044 3035 3028 3020 3011 3003 2994 2987
3110 3114 3118 3121 3125 3128 3131 3133 3135 3136 3138 3139 3140 3141 3141 3140 3140 3139 3136 3134 3131 3128 3124 3121 3116 3112 3107 3101 3095 3087 3080 3073 3064 3056 3046 3039 3031 3024 3016 3007 2999 2991 2985
3106 3111 3115 3119 3122 3125 3128 3130 3132 3134 3135 3137 3138 3138 3138 3138 3137 3135 3133 3130 3128 3124 3121 3117 3112 3108 3103 3097 3090 3082 3074 3066 3059 3051 3043 3034 3027 3021 3013 3005 2998 2989 2980
3103 3107 3112 3116 3119 3122 3125 3127 3129 3131 3133 3134 3135 3135 3136 3135 3134 3132 3130 3127 3124 3120 3117 3113 3108 3104 3099 3093 3087 3080 3072 3065 3056 3047 3039 3031 3024 3016 3009 3003 2997 2990 2981
3099 3104 3108 3112 3115 3118 3122 3124 3127 3129 3130 3131 3132 3133 3133 3132 3130 3128 3126 3123 3120 3117 3113 3109 3105 3100 3095 3090 3085 3078 3071 3061 3053 3044 3035 3028 3020 3013 3007 3001 2994 2989 2984
3094 3100 3105 3108 3112 3115 3119 3121 3123 3125 3127 3128 3129 3129 3129 3128 3126 3124 3122 3119 3116 3113 3109 3105 3100 3096 3090 3086 3081 3074 3066 3058 3050 3041 3032 3024 3018 3012 3005 2999 2993 2986 2980
3091 3096 3101 3105 3108 3112 3115 3117 3119 3121 3123 3124 3125 3125 3124 3124 3122 3120 3118 3115 3112 3109 3105 3101 3098 3091 3086 3081 3074 3067 3060 3053 3045 3037 3030 3022 3016 3009 3003 2996 2990 2984 2976
3087 3092 3096 3100 3104 3107 3110 3113 3115 3117 3119 3120 3120 3120 3120 3119 3118 3117 3114 3111 3109 3105 3101 3096 3092 3086 3081 3076 3069 3062 3055 3048 3041 3032 3025 3018 3013 3007 3001 2995 2989 2981 2976
3083 3087 3091 3096 3099 3102 3106 3108 3110 3112 3114 3115 3115 3115 3115 3115 3114 3113 3110 3108 3105 3101 3097 3093 3088 3083 3077 3071 3065 3059 3053 3046 3037 3029 3021 3015 3010 3004 2999 2994 2987 2981 2974
3075 3081 3086 3090 3094 3097 3100 3103 3105 3107 3109 3110 3110 3111 3111 3110 3110 3108 3106 3104 3101 3097 3094 3090 3085 3080 3074 3068 3063 3056 3049 3041 3034 3026 3019 3012 3006 3001 2996 2991 2985 2978 2973
3070 3075 3079 3083 3087 3091 3094 3097 3099 3101 3103 3105 3105 3106 3106 3106 3105 3103 3101 3099 3096 3093 3090 3086 3081 3077 3071 3065 3059 3052 3045 3037 3029 3022 3015 3009 3003 2997 2993 2988 2983 2978 2971
3064 3068 3072 3076 3081 3084 3088 3091 3094 3096 3098 3098 3099 3100 3101 3101 3100 3098 3096 3094 3091 3089 3085 3081 3077 3072 3067 3061 3055 3048 3041 3034 3028 3020 3013 3007 3000 2995 2990 2985 2980 2975 2970
3057 3060 3064 3069 3074 3077 3081 3085 3087 3090 3091 3093 3094 3095 3096 3096 3095 3093 3092 3090 3087 3084 3081 3077 3073 3068 3063 3058 3052 3045 3038 3031 3024 3017 3010 3003 2997 2992 2988 2983 2978 2973 2968
3051 3055 3059 3063 3067 3070 3074 3078 3081 3083 3085 3087 3088 3090 3090 3090 3090 3088 3087 3085 3082 3080 3076 3072 3068 3063 3059 3053 3047 3041 3035 3028 3020 3013 3006 3000 2995 2990 2986 2981 2976 2971 2967
3045 3049 3053 3058 3061 3065 3068 3072 3074 3076 3079 3081 3082 3083 3084 3085 3084 3084 3082 3080 3078 3074 3071 3067 3064 3059 3054 3049 3044 3038 3031 3025 3018 3010 3004 2998 2993 2989 2985 2980 2975 2971 2966
3039 3043 3047 3052 3055 3059 3062 3064 3067 3069 3072 3074 3076 3078 3079 3080 3079 3078 3077 3075 3073 3070 3066 3063 3059 3055 3051 3046 3040 3034 3028 3022 3014 3008 3002 2996 2992 2988 2984 2979 2975 2971 2967
3035 3039 3043 3047 3050 3052 3055 3057 3060 3062 3065 3068 3070 3072 3073 3074 3074 3073 3071 3070 3067 3065 3062 3059 3055 3051 3047 3042 3037 3032 3026 3019 3013 3006 3000 2995 2990 2986 2983 2979 2975 2971 2968
3029 3033 3037 3041 3044 3048 3050 3053 3055 3057 3060 3062 3065 3067 3068 3068 3068 3067 3066 3064 3062 3060 3057 3054 3051 3048 3044 3039 3035 3029 3023 3017 3010 3004 2999 2994 2989 2985 2982 2978 2975 2971 2969
3022 3027 3031 3035 3039 3042 3045 3047 3049 3051 3054 3057 3059 3061 3062 3063 3063 3062 3061 3059 3057 3055 3053 3050 3047 3044 3040 3036 3032 3027 3021 3015 3009 3003 2997 2993 2989 2985 2982 2978 2975 2972 2970
3014 3019 3024 3028 3032 3036 3039 3042 3044 3046 3049 3050 3052 3054 3056 3057 3057 3057 3056 3054 3052 3050 3048 3046 3043 3040 3037 3033 3029 3024 3019 3013 3007 3001 2996 2992 2988 2984 2981 2978 2975 2973 2971
3007 3012 3016 3021 3025 3030 3032 3035 3038 3040 3042 3044 3045 3048 3050 3051 3052 3051 3050 3049 3048 3046 3044 3041 3039 3036 3033 3029 3025 3020 3015 3010 3004 2999 2995 2991 2987 2984 2981 2979 2976 2974 2972
2999 3003 3008 3013 3017 3022 3025 3028 3030 3033 3036 3038 3039 3040 3042 3044 3045 3045 3045 3044 3043 3041 3039 3037 3035 3032 3029 3026 3022 3017 3013 3008 3003 2998 2993 2990 2986 2984 2981 2979 2977 2975 2973
2995 2998 3002 3005 3009 3013 3017 3020 3023 3026 3028 3031 3033 3034 3035 3036 3038 3039 3039 3038 3037 3036 3035 3033 3031 3028 3025 3022 3018 3014 3010 3006 3001 2996 2992 2988 2985 2983 2981 2979 2977 2975 2973